Location: ????
(33.1659°N, 35.6604°E)
Time: 23:43:53
(UTC+00:00)

FengYun 1-2 T - Pass Details

Date: 20 September 2019
Orbit: 846 x 881 km, 98.7° (Epoch: 22 October)

Event Time Altitude Azimuth Distance (km) Brightness Sun altitude
Rises 15:59:14 0° 164° (SSE) 3,444 7.2 -5.4°
Reaches altitude 10° 16:01:36 10° 164° (SSE) 2,514 6.5 -5.9°
Maximum altitude 16:07:12 87° 75° (ENE) 884 4.3 -7.0°
Drops below altitude 10° 16:12:53 10° 348° (NNW) 2,542 6.9 -8.2°
Sets 16:15:17 0° 348° (NNW) 3,486 7.7 -8.7°
